| time (UTC) | temp F | wind direction | speed knots | gust knots | rain 1hr in | rain 24hr in | rain mn in | humidity % | barometer mb |
| 20260902121005 | 73 | 108 | 0.0 | 1.7 | 0.00 | 0.00 | 0.00 | 23 | 1016.6 |
| 20260902120502 | 73 | 235 | 2.6 | 2.6 | 0.00 | 0.00 | 0.00 | 22 | 1016.8 |
| 20260902120002 | 73 | 200 | 2.6 | 3.5 | 0.00 | 0.00 | 0.00 | 22 | 1016.6 |
| 20260902115457 | 74 | 218 | 2.6 | 3.5 | 0.00 | 0.00 | 0.00 | 22 | 1016.6 |
| 20260902114954 | 75 | 222 | 0.9 | 1.7 | 0.00 | 0.00 | 0.00 | 22 | 1016.3 |
| 20260902114449 | 74 | 201 | 0.0 | 1.7 | 0.00 | 0.00 | 0.00 | 22 | 1016.5 |
| 20260902113944 | 75 | 249 | 0.9 | 3.5 | 0.00 | 0.00 | 0.00 | 21 | 1016.5 |
| 20260902113440 | 75 | 219 | 1.7 | 3.5 | 0.00 | 0.00 | 0.00 | 21 | 1016.5 |
| 20260902112939 | 73 | 240 | 3.5 | 3.5 | 0.00 | 0.00 | 0.00 | 22 | 1016.6 |
| 20260902112436 | 75 | 191 | 0.9 | 1.7 | 0.00 | 0.00 | 0.00 | 21 | 1016.3 |
| 20260902111931 | 75 | 253 | 0.0 | 1.7 | 0.00 | 0.00 | 0.00 | 21 | 1016.6 |
| 20260902111427 | 75 | 219 | 0.0 | 1.7 | 0.00 | 0.00 | 0.00 | 21 | 1016.8 |
| 20260902110923 | 75 | 234 | 0.9 | 2.6 | 0.00 | 0.00 | 0.00 | 21 | 1016.7 |
| 20260902110420 | 74 | 242 | 0.0 | 2.6 | 0.00 | 0.00 | 0.00 | 21 | 1016.7 |
| 20260902105919 | 75 | 241 | 2.6 | 3.5 | 0.00 | 0.00 | 0.00 | 21 | 1016.5 |
| 20260902105414 | 75 | 205 | 1.7 | 1.7 | 0.00 | 0.00 | 0.00 | 21 | 1016.5 |
| 20260902104910 | 75 | 283 | 0.0 | 1.7 | 0.00 | 0.00 | 0.00 | 21 | 1016.7 |
| 20260902104406 | 75 | 77 | 0.0 | 1.7 | 0.00 | 0.00 | 0.00 | 20 | 1016.9 |
| 20260902103905 | 73 | 159 | 1.7 | 1.7 | 0.00 | 0.00 | 0.00 | 21 | 1016.6 |
| 20260902103400 | 74 | 180 | 0.0 | 1.7 | 0.00 | 0.00 | 0.00 | 21 | 1016.6 |
| 20260902102854 | 75 | 117 | 0.0 | 1.7 | 0.00 | 0.00 | 0.00 | 20 | 1016.7 |
| 20260902102353 | 73 | 226 | 2.6 | 3.5 | 0.00 | 0.00 | 0.00 | 20 | 1016.8 |
| 20260902101848 | 73 | 327 | 0.0 | 1.7 | 0.00 | 0.00 | 0.00 | 21 | 1016.8 |
| 20260902101343 | 74 | 240 | 1.7 | 3.5 | 0.00 | 0.00 | 0.00 | 20 | 1017.0 |
| 20260902100842 | 75 | 245 | 1.7 | 1.7 | 0.00 | 0.00 | 0.00 | 19 | 1016.9 |
| 20260902100337 | 74 | 10 | 0.9 | 0.9 | 0.00 | 0.00 | 0.00 | 20 | 1017.0 |
| 20260902095832 | 73 | 282 | 1.7 | 2.6 | 0.00 | 0.00 | 0.00 | 20 | 1017.0 |
| 20260902095331 | 73 | 267 | 0.9 | 1.7 | 0.00 | 0.00 | 0.00 | 20 | 1017.0 |
| 20260902094831 | 75 | 33 | 0.0 | 1.7 | 0.00 | 0.00 | 0.00 | 20 | 1017.0 |
| 20260902094328 | 75 | 117 | 0.0 | 0.9 | 0.00 | 0.00 | 0.00 | 19 | 1016.9 |
| 20260902093827 | 75 | 207 | 0.0 | 2.6 | 0.00 | 0.00 | 0.00 | 20 | 1017.0 |
| 20260902093322 | 73 | 218 | 0.0 | 1.7 | 0.00 | 0.00 | 0.00 | 20 | 1017.1 |
| 20260902092821 | 74 | 224 | 0.0 | 1.7 | 0.00 | 0.00 | 0.00 | 20 | 1016.9 |
| 20260902092317 | 74 | 141 | 0.0 | 1.7 | 0.00 | 0.00 | 0.00 | 20 | 1016.8 |
| 20260902091811 | 74 | 244 | 0.9 | 2.6 | 0.00 | 0.00 | 0.00 | 20 | 1017.1 |
| 20260902091307 | 75 | 262 | 1.7 | 2.6 | 0.00 | 0.00 | 0.00 | 19 | 1017.0 |
| 20260902090804 | 76 | 249 | 0.9 | 1.7 | 0.00 | 0.00 | 0.00 | 18 | 1017.1 |
| 20260902090302 | 76 | 337 | 2.6 | 2.6 | 0.00 | 0.00 | 0.00 | 18 | 1017.3 |
| 20260902085802 | 77 | 245 | 0.9 | 4.3 | 0.00 | 0.00 | 0.00 | 18 | 1017.3 |
| 20260902085257 | 76 | 251 | 2.6 | 5.2 | 0.00 | 0.00 | 0.00 | 18 | 1017.3 |
| 20260902084753 | 75 | 219 | 1.7 | 2.6 | 0.00 | 0.00 | 0.00 | 19 | 1017.3 |
| 20260902084248 | 75 | 292 | 1.7 | 2.6 | 0.00 | 0.00 | 0.00 | 19 | 1017.5 |
| 20260902083744 | 75 | 332 | 1.7 | 2.6 | 0.00 | 0.00 | 0.00 | 19 | 1017.3 |
| 20260902083238 | 77 | 249 | 0.9 | 3.5 | 0.00 | 0.00 | 0.00 | 18 | 1017.5 |
| 20260902082733 | 78 | 62 | 1.7 | 2.6 | 0.00 | 0.00 | 0.00 | 19 | 1017.6 |
| 20260902082230 | 80 | 299 | 4.3 | 7.8 | 0.00 | 0.00 | 0.00 | 16 | 1017.4 |
| 20260902081726 | 81 | 337 | 1.7 | 7.0 | 0.00 | 0.00 | 0.00 | 17 | 1017.5 |
| 20260902081221 | 80 | 331 | 4.3 | 4.3 | 0.00 | 0.00 | 0.00 | 16 | 1017.5 |
| 20260902080715 | 81 | 339 | 2.6 | 6.1 | 0.00 | 0.00 | 0.00 | 16 | 1017.2 |
| 20260902080207 | 80 | 12 | 5.2 | 7.8 | 0.00 | 0.00 | 0.00 | 17 | 1017.2 |
| 20260902075706 | 80 | 20 | 1.7 | 7.8 | 0.00 | 0.00 | 0.00 | 17 | 1017.4 |
| 20260902075202 | 80 | 350 | 3.5 | 5.2 | 0.00 | 0.00 | 0.00 | 17 | 1017.3 |
| 20260902074657 | 80 | 18 | 5.2 | 7.0 | 0.00 | 0.00 | 0.00 | 17 | 1017.3 |
| 20260902074152 | 80 | 16 | 2.6 | 5.2 | 0.00 | 0.00 | 0.00 | 17 | 1017.3 |
| 20260902073647 | 80 | 358 | 2.6 | 5.2 | 0.00 | 0.00 | 0.00 | 17 | 1017.4 |
| 20260902073144 | 80 | 359 | 2.6 | 5.2 | 0.00 | 0.00 | 0.00 | 17 | 1017.3 |
| 20260902072639 | 80 | 299 | 0.0 | 4.3 | 0.00 | 0.00 | 0.00 | 18 | 1017.2 |
| 20260902072135 | 79 | 355 | 1.7 | 2.6 | 0.00 | 0.00 | 0.00 | 18 | 1017.4 |
| 20260902071630 | 78 | 31 | 0.9 | 4.3 | 0.00 | 0.00 | 0.00 | 19 | 1017.3 |
| 20260902071126 | 76 | 86 | 0.0 | 1.7 | 0.00 | 0.00 | 0.00 | 22 | 1017.4 |
| 20260902070621 | 76 | 274 | 1.7 | 1.7 | 0.00 | 0.00 | 0.00 | 22 | 1017.3 |
| 20260902070116 | 77 | 18 | 1.7 | 1.7 | 0.00 | 0.00 | 0.00 | 21 | 1017.1 |
| 20260902065615 | 78 | 229 | 0.0 | 0.9 | 0.00 | 0.00 | 0.00 | 21 | 1017.2 |
| 20260902065111 | 78 | 282 | 0.0 | 2.6 | 0.00 | 0.00 | 0.00 | 21 | 1017.4 |
| 20260902064607 | 77 | 165 | 0.0 | 1.7 | 0.00 | 0.00 | 0.00 | 21 | 1017.3 |
| 20260902064101 | 78 | 299 | 1.7 | 4.3 | 0.00 | 0.00 | 0.00 | 21 | 1017.1 |
| 20260902063556 | 79 | 224 | 0.0 | 1.7 | 0.00 | 0.00 | 0.00 | 20 | 1017.1 |
| 20260902063051 | 77 | 312 | 1.7 | 2.6 | 0.00 | 0.00 | 0.00 | 20 | 1017.1 |
| 20260902062549 | 77 | 357 | 0.9 | 2.6 | 0.00 | 0.00 | 0.00 | 22 | 1017.1 |
| 20260902062046 | 77 | 68 | 0.0 | 1.7 | 0.00 | 0.00 | 0.00 | 22 | 1017.2 |
| 20260902061545 | 78 | 234 | 1.7 | 2.6 | 0.00 | 0.00 | 0.00 | 21 | 1017.0 |
| 20260902061041 | 77 | 297 | 1.7 | 1.7 | 0.00 | 0.00 | 0.00 | 21 | 1017.1 |
| 20260902060537 | 77 | 57 | 0.9 | 1.7 | 0.00 | 0.00 | 0.00 | 22 | 1016.9 |
| 20260902060034 | 77 | 355 | 0.9 | 1.7 | 0.00 | 0.00 | 0.00 | 22 | 1016.9 |
| 20260902055529 | 78 | 100 | 0.0 | 0.9 | 0.00 | 0.00 | 0.00 | 21 | 1017.0 |
| 20260902055024 | 78 | 128 | 0.0 | 1.7 | 0.00 | 0.00 | 0.00 | 21 | 1017.0 |
| 20260902054519 | 77 | 147 | 0.0 | 1.7 | 0.00 | 0.00 | 0.00 | 22 | 1016.8 |
| 20260902054015 | 78 | 158 | 0.0 | 0.9 | 0.00 | 0.00 | 0.00 | 22 | 1016.9 |
| 20260902053510 | 79 | 224 | 0.0 | 1.7 | 0.00 | 0.00 | 0.00 | 22 | 1016.9 |
| 20260902053010 | 81 | 263 | 0.0 | 1.7 | 0.00 | 0.00 | 0.00 | 20 | 1016.8 |
| 20260902052504 | 82 | 316 | 3.5 | 5.2 | 0.00 | 0.00 | 0.00 | 19 | 1017.0 |
| 20260902052000 | 82 | 68 | 0.0 | 1.7 | 0.00 | 0.00 | 0.00 | 19 | 1016.9 |
| 20260902051500 | 82 | 17 | 1.7 | 4.3 | 0.00 | 0.00 | 0.00 | 19 | 1017.0 |
| 20260902050958 | 82 | 357 | 1.7 | 4.3 | 0.00 | 0.00 | 0.00 | 19 | 1017.1 |
| 20260902050453 | 81 | 329 | 0.9 | 1.7 | 0.00 | 0.00 | 0.00 | 20 | 1017.1 |
| 20260902045948 | 82 | 64 | 0.0 | 3.5 | 0.00 | 0.00 | 0.00 | 20 | 1016.9 |
| 20260902045444 | 83 | 52 | 1.7 | 1.7 | 0.00 | 0.00 | 0.00 | 21 | 1017.0 |
| 20260902044940 | 82 | 77 | 2.6 | 2.6 | 0.00 | 0.00 | 0.00 | 22 | 1017.0 |
| 20260902044435 | 82 | 101 | 0.9 | 2.6 | 0.00 | 0.00 | 0.00 | 21 | 1017.0 |
| 20260902043930 | 82 | 74 | 0.0 | 1.7 | 0.00 | 0.00 | 0.00 | 21 | 1016.8 |
| 20260902043425 | 83 | 236 | 1.7 | 3.5 | 0.00 | 0.00 | 0.00 | 20 | 1016.8 |
| 20260902042920 | 83 | 239 | 1.7 | 2.6 | 0.00 | 0.00 | 0.00 | 21 | 1016.6 |
| 20260902042419 | 83 | 130 | 0.9 | 1.7 | 0.00 | 0.00 | 0.00 | 21 | 1016.5 |
| 20260902041915 | 84 | 123 | 1.7 | 1.7 | 0.00 | 0.00 | 0.00 | 20 | 1016.6 |
| 20260902041409 | 85 | 109 | 1.7 | 2.6 | 0.00 | 0.00 | 0.00 | 18 | 1016.6 |
| 20260902040911 | 85 | 197 | 0.0 | 1.7 | 0.00 | 0.00 | 0.00 | 18 | 1016.2 |
| 20260902040403 | 86 | 347 | 1.7 | 3.5 | 0.00 | 0.00 | 0.00 | 18 | 1016.2 |
| 20260902035902 | 86 | 353 | 1.7 | 5.2 | 0.00 | 0.00 | 0.00 | 18 | 1016.0 |
| 20260902035352 | 86 | 10 | 0.9 | 2.6 | 0.00 | 0.00 | 0.00 | 19 | 1015.9 |
| 20260902034851 | 87 | 111 | 0.0 | 1.7 | 0.00 | 0.00 | 0.00 | 19 | 1015.9 |
| 20260902034347 | 87 | 317 | 3.5 | 4.3 | 0.00 | 0.00 | 0.00 | 18 | 1015.9 |
| 20260902033845 | 86 | 322 | 0.0 | 1.7 | 0.00 | 0.00 | 0.00 | 19 | 1015.8 |
| 20260902033340 | 86 | 0 | 0.0 | 1.7 | 0.00 | 0.00 | 0.00 | 20 | 1015.6 |
| 20260902032839 | 87 | 30 | 1.7 | 1.7 | 0.00 | 0.00 | 0.00 | 19 | 1015.7 |
| 20260902032338 | 87 | 290 | 0.0 | 3.5 | 0.00 | 0.00 | 0.00 | 19 | 1015.5 |
| 20260902031833 | 88 | 250 | 3.5 | 6.1 | 0.00 | 0.00 | 0.00 | 19 | 1015.4 |
| 20260902031329 | 88 | 280 | 0.9 | 6.1 | 0.00 | 0.00 | 0.00 | 19 | 1015.2 |
| 20260902030819 | 88 | 333 | 4.3 | 9.6 | 0.00 | 0.00 | 0.00 | 19 | 1015.2 |
| 20260902030313 | 88 | 298 | 5.2 | 5.2 | 0.00 | 0.00 | 0.00 | 19 | 1015.1 |
| 20260902025813 | 88 | 264 | 5.2 | 8.7 | 0.00 | 0.00 | 0.00 | 19 | 1015.3 |
| 20260902025309 | 88 | 303 | 5.2 | 9.6 | 0.00 | 0.00 | 0.00 | 19 | 1015.1 |
| 20260902024803 | 88 | 339 | 3.5 | 8.7 | 0.00 | 0.00 | 0.00 | 18 | 1014.9 |
| 20260902024258 | 89 | 328 | 6.1 | 9.6 | 0.00 | 0.00 | 0.00 | 18 | 1014.9 |
| 20260902023754 | 89 | 303 | 3.5 | 14.8 | 0.00 | 0.00 | 0.00 | 19 | 1014.7 |
| 20260902023249 | 89 | 271 | 3.5 | 13.9 | 0.00 | 0.00 | 0.00 | 18 | 1014.6 |
| 20260902022748 | 90 | 279 | 6.1 | 14.8 | 0.00 | 0.00 | 0.00 | 19 | 1014.5 |
| 20260902022244 | 89 | 327 | 6.1 | 10.4 | 0.00 | 0.00 | 0.00 | 20 | 1014.6 |
| 20260902021739 | 90 | 244 | 8.7 | 13.0 | 0.00 | 0.00 | 0.00 | 22 | 1014.5 |
| 20260902021233 | 90 | 293 | 6.1 | 10.4 | 0.00 | 0.00 | 0.00 | 22 | 1014.3 |
| 20260902020730 | 90 | 244 | 13.0 | 14.8 | 0.00 | 0.00 | 0.00 | 22 | 1014.3 |
| 20260902020225 | 91 | 229 | 7.0 | 8.7 | 0.00 | 0.00 | 0.00 | 22 | 1014.3 |
| 20260902015720 | 91 | 312 | 3.5 | 7.8 | 0.00 | 0.00 | 0.00 | 22 | 1014.3 |
| 20260902015217 | 91 | 291 | 5.2 | 9.6 | 0.00 | 0.00 | 0.00 | 21 | 1014.4 |
| 20260902014712 | 92 | 262 | 7.0 | 12.2 | 0.00 | 0.00 | 0.00 | 19 | 1013.9 |
| 20260902014209 | 92 | 239 | 10.4 | 14.8 | 0.00 | 0.00 | 0.00 | 20 | 1014.0 |
| 20260902013707 | 93 | 296 | 7.0 | 16.5 | 0.00 | 0.00 | 0.00 | 20 | 1014.0 |
| 20260902013203 | 92 | 284 | 5.2 | 13.0 | 0.00 | 0.00 | 0.00 | 20 | 1013.9 |
| 20260902012658 | 93 | 230 | 0.9 | 5.2 | 0.00 | 0.00 | 0.00 | 19 | 1013.9 |
| 20260902012153 | 93 | 271 | 4.3 | 14.8 | 0.00 | 0.00 | 0.00 | 18 | 1013.8 |
| 20260902011648 | 93 | 280 | 5.2 | 14.8 | 0.00 | 0.00 | 0.00 | 19 | 1013.7 |
| 20260902011143 | 93 | 246 | 4.3 | 10.4 | 0.00 | 0.00 | 0.00 | 21 | 1013.9 |
| 20260902010642 | 95 | 279 | 6.1 | 14.8 | 0.00 | 0.00 | 0.00 | 21 | 1013.8 |
| 20260902010139 | 95 | 263 | 4.3 | 11.3 | 0.00 | 0.00 | 0.00 | 20 | 1013.7 |
| 20260902005636 | 96 | 3 | 2.6 | 6.1 | 0.00 | 0.00 | 0.00 | 21 | 1014.0 |
| 20260902005132 | 98 | 312 | 3.5 | 14.8 | 0.00 | 0.00 | 0.00 | 18 | 1013.9 |
| 20260902004632 | 96 | 241 | 4.3 | 10.4 | 0.00 | 0.00 | 0.00 | 20 | 1014.1 |
| 20260902004127 | 98 | 243 | 6.1 | 7.0 | 0.00 | 0.00 | 0.00 | 17 | 1014.1 |
| 20260902003622 | 98 | 286 | 4.3 | 8.7 | 0.00 | 0.00 | 0.00 | 19 | 1013.8 |
| 20260902003118 | 98 | 297 | 3.5 | 8.7 | 0.00 | 0.00 | 0.00 | 19 | 1014.1 |
| 20260902002613 | 98 | 267 | 5.2 | 8.7 | 0.00 | 0.00 | 0.00 | 18 | 1014.0 |
| 20260902002108 | 97 | 251 | 6.1 | 8.7 | 0.00 | 0.00 | 0.00 | 19 | 1014.1 |
| 20260902001602 | 98 | 241 | 8.7 | 13.9 | 0.00 | 0.00 | 0.00 | 18 | 1014.1 |
| 20260902001052 | 99 | 265 | 3.5 | 9.6 | 0.00 | 0.00 | 0.00 | 19 | 1013.9 |
| 20260902000546 | 99 | 312 | 4.3 | 8.7 | 0.00 | 0.00 | 0.00 | 18 | 1014.2 |
| 20260902000042 | 98 | 273 | 4.3 | 10.4 | 0.00 | 0.00 | 0.00 | 18 | 1014.0 |
| 20260901235541 | 100 | 262 | 4.3 | 11.3 | 0.00 | 0.00 | 0.00 | 19 | 1014.2 |
| 20260901235038 | 100 | 272 | 4.3 | 7.8 | 0.00 | 0.00 | 0.00 | 19 | 1014.0 |
| 20260901234536 | 99 | 247 | 7.8 | 13.9 | 0.00 | 0.00 | 0.00 | 19 | 1014.0 |
| 20260901234032 | 100 | 294 | 2.6 | 9.6 | 0.00 | 0.00 | 0.00 | 19 | 1014.2 |
| 20260901233531 | 100 | 234 | 12.2 | 14.8 | 0.00 | 0.00 | 0.00 | 19 | 1014.1 |
| 20260901233028 | 100 | 319 | 3.5 | 9.6 | 0.00 | 0.00 | 0.00 | 19 | 1014.1 |
| 20260901232523 | 100 | 233 | 2.6 | 9.6 | 0.00 | 0.00 | 0.00 | 19 | 1014.2 |
| 20260901232018 | 101 | 61 | 3.5 | 7.8 | 0.00 | 0.00 | 0.00 | 19 | 1014.3 |
| 20260901231514 | 100 | 232 | 8.7 | 16.5 | 0.00 | 0.00 | 0.00 | 18 | 1014.2 |
| 20260901231011 | 100 | 291 | 5.2 | 10.4 | 0.00 | 0.00 | 0.00 | 18 | 1014.2 |
| 20260901230510 | 102 | 261 | 3.5 | 8.7 | 0.00 | 0.00 | 0.00 | 17 | 1014.3 |
| 20260901230006 | 100 | 227 | 7.8 | 11.3 | 0.00 | 0.00 | 0.00 | 17 | 1014.3 |
| 20260901225500 | 100 | 288 | 2.6 | 10.4 | 0.00 | 0.00 | 0.00 | 17 | 1014.4 |
| 20260901224954 | 100 | 278 | 7.0 | 13.0 | 0.00 | 0.00 | 0.00 | 17 | 1014.4 |
| 20260901224450 | 102 | 251 | 3.5 | 7.8 | 0.00 | 0.00 | 0.00 | 16 | 1014.4 |
| 20260901223946 | 101 | 224 | 3.5 | 7.0 | 0.00 | 0.00 | 0.00 | 17 | 1014.5 |
| 20260901223442 | 101 | 257 | 7.0 | 10.4 | 0.00 | 0.00 | 0.00 | 17 | 1014.5 |
| 20260901222937 | 101 | 250 | 9.6 | 13.9 | 0.00 | 0.00 | 0.00 | 16 | 1014.5 |
| 20260901222433 | 102 | 249 | 7.8 | 9.6 | 0.00 | 0.00 | 0.00 | 16 | 1014.5 |
| 20260901221929 | 103 | 264 | 4.3 | 12.2 | 0.00 | 0.00 | 0.00 | 16 | 1014.5 |
| 20260901221425 | 102 | 233 | 7.8 | 12.2 | 0.00 | 0.00 | 0.00 | 16 | 1014.5 |
| 20260901220920 | 102 | 256 | 9.6 | 13.0 | 0.00 | 0.00 | 0.00 | 16 | 1014.5 |
| 20260901220419 | 102 | 244 | 5.2 | 9.6 | 0.00 | 0.00 | 0.00 | 16 | 1014.5 |
| 20260901215918 | 100 | 234 | 3.5 | 16.5 | 0.00 | 0.00 | 0.00 | 16 | 1014.7 |
| 20260901215416 | 101 | 252 | 5.2 | 14.8 | 0.00 | 0.00 | 0.00 | 17 | 1014.7 |
| 20260901214916 | 102 | 231 | 5.2 | 18.2 | 0.00 | 0.00 | 0.00 | 16 | 1014.7 |
| 20260901214414 | 103 | 243 | 13.0 | 14.8 | 0.00 | 0.00 | 0.00 | 15 | 1014.9 |
| 20260901213914 | 102 | 232 | 16.5 | 23.5 | 0.00 | 0.00 | 0.00 | 15 | 1014.7 |
| 20260901213409 | 103 | 221 | 7.8 | 13.9 | 0.00 | 0.00 | 0.00 | 15 | 1014.9 |
| 20260901212903 | 102 | 219 | 5.2 | 16.5 | 0.00 | 0.00 | 0.00 | 16 | 1015.0 |
| 20260901212358 | 102 | 230 | 11.3 | 14.8 | 0.00 | 0.00 | 0.00 | 16 | 1015.1 |
| 20260901211855 | 102 | 252 | 7.8 | 15.6 | 0.00 | 0.00 | 0.00 | 17 | 1015.2 |
| 20260901211350 | 103 | 240 | 7.8 | 13.0 | 0.00 | 0.00 | 0.00 | 16 | 1015.1 |
| 20260901210846 | 102 | 233 | 9.6 | 18.2 | 0.00 | 0.00 | 0.00 | 16 | 1015.1 |
| 20260901210341 | 102 | 231 | 10.4 | 18.2 | 0.00 | 0.00 | 0.00 | 15 | 1015.2 |
| 20260901205838 | 101 | 174 | 2.6 | 13.0 | 0.00 | 0.00 | 0.00 | 17 | 1015.2 |
| 20260901205337 | 101 | 219 | 3.5 | 13.9 | 0.00 | 0.00 | 0.00 | 17 | 1015.2 |
| 20260901204832 | 102 | 229 | 6.1 | 11.3 | 0.00 | 0.00 | 0.00 | 16 | 1015.4 |
| 20260901204329 | 102 | 232 | 8.7 | 18.2 | 0.00 | 0.00 | 0.00 | 16 | 1015.3 |
| 20260901203828 | 103 | 209 | 7.0 | 10.4 | 0.00 | 0.00 | 0.00 | 16 | 1015.3 |
| 20260901203322 | 102 | 217 | 6.1 | 11.3 | 0.00 | 0.00 | 0.00 | 15 | 1015.4 |
| 20260901202817 | 101 | 217 | 11.3 | 17.4 | 0.00 | 0.00 | 0.00 | 15 | 1015.5 |
| 20260901202312 | 101 | 230 | 8.7 | 15.6 | 0.00 | 0.00 | 0.00 | 16 | 1015.4 |
| 20260901201809 | 102 | 250 | 11.3 | 16.5 | 0.00 | 0.00 | 0.00 | 15 | 1015.5 |
| 20260901201308 | 102 | 229 | 7.8 | 15.6 | 0.00 | 0.00 | 0.00 | 16 | 1015.7 |
| 20260901200802 | 102 | 202 | 4.3 | 11.3 | 0.00 | 0.00 | 0.00 | 16 | 1015.6 |
| 20260901200258 | 101 | 246 | 3.5 | 4.3 | 0.00 | 0.00 | 0.00 | 17 | 1015.7 |
| 20260901195755 | 102 | 348 | 6.1 | 7.0 | 0.00 | 0.00 | 0.00 | 17 | 1015.5 |
| 20260901195249 | 101 | 103 | 1.7 | 2.6 | 0.00 | 0.00 | 0.00 | 17 | 1015.9 |
| 20260901194745 | 102 | 259 | 1.7 | 3.5 | 0.00 | 0.00 | 0.00 | 17 | 1015.6 |
| 20260901194240 | 102 | 344 | 0.9 | 3.5 | 0.00 | 0.00 | 0.00 | 18 | 1015.7 |
| 20260901193736 | 100 | 336 | 4.3 | 5.2 | 0.00 | 0.00 | 0.00 | 18 | 1016.0 |
| 20260901193235 | 98 | 236 | 0.9 | 8.7 | 0.00 | 0.00 | 0.00 | 18 | 1016.0 |
| 20260901192730 | 100 | 238 | 1.7 | 5.2 | 0.00 | 0.00 | 0.00 | 18 | 1016.1 |
| 20260901192225 | 99 | 75 | 3.5 | 4.3 | 0.00 | 0.00 | 0.00 | 18 | 1016.0 |
| 20260901191721 | 100 | 56 | 1.7 | 6.1 | 0.00 | 0.00 | 0.00 | 18 | 1016.1 |
| 20260901191219 | 100 | 83 | 1.7 | 3.5 | 0.00 | 0.00 | 0.00 | 18 | 1016.3 |
| 20260901190713 | 100 | 76 | 3.5 | 4.3 | 0.00 | 0.00 | 0.00 | 18 | 1016.1 |
| 20260901190212 | 98 | 358 | 3.5 | 5.2 | 0.00 | 0.00 | 0.00 | 19 | 1016.3 |
| 20260901185711 | 100 | 357 | 4.3 | 7.0 | 0.00 | 0.00 | 0.00 | 19 | 1016.5 |
| 20260901185209 | 100 | 83 | 0.0 | 2.6 | 0.00 | 0.00 | 0.00 | 18 | 1016.6 |
| 20260901184705 | 98 | 269 | 0.0 | 4.3 | 0.00 | 0.00 | 0.00 | 19 | 1016.7 |
| 20260901184159 | 98 | 286 | 0.0 | 2.6 | 0.00 | 0.00 | 0.00 | 19 | 1016.8 |
| 20260901183650 | 97 | 96 | 2.6 | 5.2 | 0.00 | 0.00 | 0.00 | 19 | 1016.7 |
| 20260901183149 | 98 | 101 | 2.6 | 5.2 | 0.00 | 0.00 | 0.00 | 19 | 1016.8 |
| 20260901182646 | 98 | 98 | 4.3 | 7.0 | 0.00 | 0.00 | 0.00 | 18 | 1016.7 |
| 20260901182144 | 97 | 85 | 4.3 | 4.3 | 0.00 | 0.00 | 0.00 | 19 | 1016.7 |
| 20260901181639 | 96 | 113 | 1.7 | 7.0 | 0.00 | 0.00 | 0.00 | 19 | 1016.9 |
| 20260901181134 | 98 | 77 | 2.6 | 4.3 | 0.00 | 0.00 | 0.00 | 18 | 1017.0 |
| 20260901180634 | 97 | 2 | 1.7 | 6.1 | 0.00 | 0.00 | 0.00 | 18 | 1017.0 |
| 20260901180128 | 98 | 78 | 2.6 | 5.2 | 0.00 | 0.00 | 0.00 | 18 | 1017.0 |
| 20260901175627 | 98 | 96 | 1.7 | 3.5 | 0.00 | 0.00 | 0.00 | 18 | 1017.1 |
| 20260901175121 | 96 | 101 | 1.7 | 6.1 | 0.00 | 0.00 | 0.00 | 18 | 1017.1 |
| 20260901174617 | 97 | 75 | 2.6 | 5.2 | 0.00 | 0.00 | 0.00 | 17 | 1017.1 |
| 20260901174113 | 97 | 51 | 1.7 | 5.2 | 0.00 | 0.00 | 0.00 | 17 | 1017.1 |
| 20260901173607 | 96 | 0 | 0.0 | 2.6 | 0.00 | 0.00 | 0.00 | 17 | 1017.3 |
| 20260901173103 | 96 | 321 | 0.0 | 3.5 | 0.00 | 0.00 | 0.00 | 17 | 1017.1 |
| 20260901172559 | 97 | 86 | 2.6 | 3.5 | 0.00 | 0.00 | 0.00 | 17 | 1017.3 |
| 20260901172057 | 96 | 326 | 1.7 | 3.5 | 0.00 | 0.00 | 0.00 | 17 | 1017.1 |
| 20260901171556 | 96 | 78 | 1.7 | 1.7 | 0.00 | 0.00 | 0.00 | 16 | 1017.1 |
| 20260901171055 | 96 | 358 | 2.6 | 2.6 | 0.00 | 0.00 | 0.00 | 18 | 1017.3 |
| 20260901170549 | 96 | 103 | 1.7 | 2.6 | 0.00 | 0.00 | 0.00 | 16 | 1017.1 |
| 20260901170044 | 95 | 84 | 1.7 | 3.5 | 0.00 | 0.00 | 0.00 | 16 | 1016.9 |
| 20260901165543 | 93 | 76 | 0.0 | 3.5 | 0.00 | 0.00 | 0.00 | 17 | 1017.3 |
| 20260901165039 | 93 | 105 | 1.7 | 3.5 | 0.00 | 0.00 | 0.00 | 16 | 1017.3 |
| 20260901164535 | 94 | 77 | 1.7 | 3.5 | 0.00 | 0.00 | 0.00 | 15 | 1017.0 |
| 20260901164029 | 93 | 315 | 0.0 | 2.6 | 0.00 | 0.00 | 0.00 | 16 | 1017.1 |
| 20260901163525 | 94 | 259 | 0.9 | 1.7 | 0.00 | 0.00 | 0.00 | 15 | 1017.1 |
| 20260901163024 | 94 | 344 | 0.0 | 1.7 | 0.00 | 0.00 | 0.00 | 15 | 1017.0 |
| 20260901162519 | 93 | 89 | 0.9 | 1.7 | 0.00 | 0.00 | 0.00 | 15 | 1017.0 |
| 20260901162019 | 93 | 74 | 0.9 | 1.7 | 0.00 | 0.00 | 0.00 | 15 | 1017.0 |
| 20260901161518 | 93 | 60 | 0.0 | 2.6 | 0.00 | 0.00 | 0.00 | 15 | 1016.9 |
| 20260901161018 | 92 | 258 | 1.7 | 2.6 | 0.00 | 0.00 | 0.00 | 15 | 1017.0 |
| 20260901160514 | 92 | 103 | 1.7 | 2.6 | 0.00 | 0.00 | 0.00 | 15 | 1016.9 |
| 20260901160015 | 92 | 326 | 0.0 | 1.7 | 0.00 | 0.00 | 0.00 | 15 | 1016.7 |
| 20260901155513 | 93 | 43 | 1.7 | 1.7 | 0.00 | 0.00 | 0.00 | 15 | 1016.9 |
| 20260901155010 | 93 | 53 | 0.9 | 1.7 | 0.00 | 0.00 | 0.00 | 14 | 1016.9 |
| 20260901154510 | 91 | 269 | 0.0 | 1.7 | 0.00 | 0.00 | 0.00 | 15 | 1017.0 |
| 20260901154009 | 91 | 64 | 1.7 | 3.5 | 0.00 | 0.00 | 0.00 | 15 | 1016.9 |
| 20260901153505 | 89 | 74 | 0.9 | 3.5 | 0.00 | 0.00 | 0.00 | 15 | 1016.9 |
| 20260901153004 | 89 | 99 | 0.0 | 2.6 | 0.00 | 0.00 | 0.00 | 16 | 1016.7 |
| 20260901152459 | 89 | 269 | 0.0 | 1.7 | 0.00 | 0.00 | 0.00 | 16 | 1016.8 |
| 20260901151958 | 88 | 284 | 0.0 | 1.7 | 0.00 | 0.00 | 0.00 | 16 | 1016.8 |
| 20260901151454 | 88 | 85 | 0.0 | 1.7 | 0.00 | 0.00 | 0.00 | 16 | 1016.9 |
| 20260901150953 | 89 | 350 | 0.9 | 1.7 | 0.00 | 0.00 | 0.00 | 16 | 1016.9 |
| 20260901150451 | 87 | 113 | 0.0 | 1.7 | 0.00 | 0.00 | 0.00 | 17 | 1016.9 |
| 20260901145948 | 87 | 281 | 1.7 | 1.7 | 0.00 | 0.00 | 0.00 | 16 | 1016.9 |
| 20260901145443 | 86 | 282 | 0.0 | 1.7 | 0.00 | 0.00 | 0.00 | 18 | 1016.8 |
| 20260901144937 | 87 | 267 | 0.0 | 0.9 | 0.00 | 0.00 | 0.00 | 17 | 1016.7 |
| 20260901144432 | 87 | 65 | 0.9 | 1.7 | 0.00 | 0.00 | 0.00 | 16 | 1016.6 |
| 20260901143928 | 86 | 89 | 0.0 | 2.6 | 0.00 | 0.00 | 0.00 | 18 | 1016.8 |
| 20260901143424 | 84 | 207 | 1.7 | 2.6 | 0.00 | 0.00 | 0.00 | 19 | 1016.7 |
| 20260901142920 | 83 | 106 | 0.0 | 1.7 | 0.00 | 0.00 | 0.00 | 20 | 1016.8 |
| 20260901142420 | 82 | 250 | 0.9 | 1.7 | 0.00 | 0.00 | 0.00 | 20 | 1016.7 |
| 20260901141915 | 81 | 121 | 1.7 | 1.7 | 0.00 | 0.00 | 0.00 | 20 | 1016.6 |
| 20260901141410 | 79 | 178 | 0.9 | 1.7 | 0.00 | 0.00 | 0.00 | 22 | 1016.6 |
| 20260901140909 | 78 | 283 | 0.0 | 0.9 | 0.00 | 0.00 | 0.00 | 22 | 1016.6 |
| 20260901140402 | 77 | 143 | 0.0 | 0.9 | 0.00 | 0.00 | 0.00 | 22 | 1016.8 |
| 20260901135857 | 76 | 139 | 0.0 | 1.7 | 0.00 | 0.00 | 0.00 | 23 | 1016.6 |
| 20260901135352 | 75 | 239 | 0.0 | 1.7 | 0.00 | 0.00 | 0.00 | 23 | 1016.3 |
| 20260901134848 | 76 | 147 | 0.9 | 1.7 | 0.00 | 0.00 | 0.00 | 23 | 1016.5 |
| 20260901134343 | 76 | 193 | 1.7 | 1.7 | 0.00 | 0.00 | 0.00 | 23 | 1016.1 |
| 20260901133842 | 74 | 226 | 0.0 | 3.5 | 0.00 | 0.00 | 0.00 | 23 | 1016.2 |
| 20260901133341 | 76 | 39 | 0.0 | 2.6 | 0.00 | 0.00 | 0.00 | 23 | 1016.1 |
| 20260901132841 | 74 | 256 | 2.6 | 3.5 | 0.00 | 0.00 | 0.00 | 24 | 1016.0 |
| 20260901132336 | 77 | 85 | 0.9 | 2.6 | 0.00 | 0.00 | 0.00 | 23 | 1016.0 |
| 20260901131836 | 76 | 259 | 0.0 | 3.5 | 0.00 | 0.00 | 0.00 | 23 | 1016.0 |
| 20260901131335 | 77 | 44 | 0.9 | 1.7 | 0.00 | 0.00 | 0.00 | 23 | 1016.0 |
| 20260901130830 | 76 | 44 | 0.9 | 1.7 | 0.00 | 0.00 | 0.00 | 23 | 1016.0 |
| 20260901130325 | 73 | 341 | 0.9 | 2.6 | 0.00 | 0.00 | 0.00 | 25 | 1016.0 |
| 20260901125822 | 75 | 130 | 0.0 | 2.6 | 0.00 | 0.00 | 0.00 | 24 | 1016.0 |
| 20260901125317 | 74 | 244 | 0.0 | 1.7 | 0.00 | 0.00 | 0.00 | 24 | 1016.0 |
| 20260901124812 | 73 | 317 | 1.7 | 1.7 | 0.00 | 0.00 | 0.00 | 25 | 1015.8 |
| 20260901124307 | 73 | 180 | 0.0 | 0.9 | 0.00 | 0.00 | 0.00 | 25 | 1015.8 |
| 20260901123806 | 73 | 256 | 1.7 | 2.6 | 0.00 | 0.00 | 0.00 | 25 | 1015.7 |
| 20260901123302 | 73 | 219 | 0.0 | 1.7 | 0.00 | 0.00 | 0.00 | 26 | 1015.7 |
| 20260901122800 | 74 | 40 | 0.0 | 0.9 | 0.00 | 0.00 | 0.00 | 25 | 1015.9 |
| 20260901122255 | 74 | 235 | 0.0 | 0.9 | 0.00 | 0.00 | 0.00 | 26 | 1015.8 |
| 20260901121754 | 73 | 338 | 0.9 | 1.7 | 0.00 | 0.00 | 0.00 | 25 | 1015.8 |
| 20260901121249 | 75 | 166 | 0.9 | 1.7 | 0.00 | 0.00 | 0.00 | 25 | 1015.4 |